Wind_Speed
26 28 27 28 28 31 32 35 31 27 26 28 30 32 35 33 33 36 37 38 36 37 35 33 31 29 26 23 20 19 14 14 14 14 11 10 10 10 10 9 8 7 4 4 6
23 25 27 28 28 30 34 31 31 37 35 31 30 31 33 36 35 36 37 39 38 39 39 36 34 32 29 27 23 20 16 19 17 17 13 13 13 14 13 12 11 9 6 2 4
25 25 28 29 30 29 30 35 36 34 37 39 38 35 33 36 38 37 36 40 40 40 40 40 38 35 33 31 27 22 19 22 20 19 17 16 15 16 15 15 14 11 8 3 1
32 29 27 28 28 31 33 32 33 37 41 42 43 42 39 36 37 39 38 39 41 42 41 41 41 39 36 35 31 26 24 25 23 21 19 18 18 16 17 16 15 12 9 5 3
37 37 32 31 29 30 31 35 35 35 38 39 40 42 42 39 39 39 40 40 41 43 43 43 42 42 41 38 35 30 29 28 24 24 22 21 22 19 20 17 17 14 11 8 6
42 40 40 39 35 33 30 32 37 39 39 44 43 45 42 40 42 40 40 41 42 43 44 45 44 44 43 41 39 33 32 31 28 28 25 25 25 21 25 21 20 17 14 11 8
51 47 45 43 43 40 37 34 34 39 42 41 48 46 43 41 43 43 42 42 43 44 44 46 48 47 45 44 42 38 36 34 32 30 28 28 27 25 27 23 24 20 16 14 12
56 56 52 50 49 47 45 43 40 39 41 46 44 48 48 47 46 46 45 43 44 46 46 46 48 50 48 46 44 42 41 38 34 34 32 32 25 32 29 27 26 23 20 17 16
61 60 60 58 55 54 51 51 48 46 43 45 48 49 47 49 53 53 49 46 46 46 47 47 48 50 50 49 47 46 43 39 36 37 36 36 30 34 33 31 29 26 24 21 20
67 66 65 67 63 61 60 57 57 56 53 48 47 48 51 48 51 54 55 54 47 47 48 50 49 49 50 52 48 44 43 42 40 41 42 39 33 37 37 35 35 31 28 26 24
73 72 71 70 70 68 67 66 64 64 61 54 52 49 47 49 48 49 54 55 59 48 48 51 51 49 44 45 48 48 47 47 45 45 45 43 38 37 40 38 37 34 31 29 25
82 80 79 78 77 75 75 75 73 71 68 61 61 59 53 49 48 52 49 59 59 58 49 50 51 48 47 47 49 50 50 49 48 49 48 48 42 39 43 39 39 37 35 34 31
87 88 87 86 85 82 81 80 79 76 78 72 68 64 59 55 51 48 55 55 62 61 61 52 51 48 49 48 49 49 50 48 48 50 49 48 48 42 43 42 39 37 37 37 36
89 90 91 91 90 88 88 84 80 81 84 82 76 72 66 61 58 52 51 56 59 62 63 63 57 52 50 52 52 51 49 48 50 51 53 50 51 45 45 46 43 40 39 37 36
97 94 93 95 95 92 89 87 83 81 88 87 83 78 74 69 64 56 55 54 56 58 65 64 62 57 50 49 51 52 50 51 51 52 54 53 55 47 47 46 44 40 38 36 36
102 102 100 99 100 97 94 90 86 85 93 96 89 84 80 77 75 65 60 56 55 56 57 65 70 71 61 54 52 55 54 54 54 55 57 54 54 55 46 42 43 41 38 36 35
106 108 108 105 102 101 99 92 89 98 97 98 95 91 87 84 79 72 66 64 58 56 59 59 60 62 67 64 56 56 55 56 57 58 59 58 55 51 44 42 41 41 41 38 35
106 108 109 110 106 102 97 93 91 106 100 100 99 96 96 89 85 80 73 68 65 62 59 60 58 56 59 66 58 55 54 53 55 57 57 58 55 50 48 42 39 39 40 39 37
104 107 109 108 106 101 93 83 109 106 107 101 103 100 97 97 90 84 80 74 68 61 58 56 59 55 56 61 60 58 56 53 53 55 58 59 57 52 49 46 41 40 41 40 38
95 103 107 105 103 98 87 88 101 91 102 100 99 96 99 101 98 94 85 80 72 65 62 58 55 56 51 51 66 61 58 55 56 56 56 56 57 55 50 47 40 36 36 37 36
53 63 90 94 92 65 74 94 91 91 89 96 100 93 91 93 96 95 90 80 70 65 63 60 56 56 59 57 53 64 72 69 60 58 57 55 53 47 43 40 34 33 33 33 35
51 58 57 59 65 65 69 70 80 79 70 84 88 85 84 85 93 92 90 82 73 67 66 64 63 59 56 53 55 49 53 63 61 60 58 55 52 45 42 38 33 32 31 31 32
55 69 50 64 70 70 70 70 66 73 73 69 72 82 77 61 83 87 90 82 75 69 67 64 66 63 58 57 54 58 48 53 64 62 63 60 59 46 46 42 36 34 34 33 33
46 50 62 47 67 72 69 70 66 69 66 65 68 64 65 71 62 79 82 80 74 71 65 64 62 62 61 57 50 43 36 36 42 63 64 69 59 58 51 46 41 37 36 33 33
45 52 54 46 57 71 49 63 60 42 66 60 64 71 61 56 58 59 77 77 75 71 68 68 65 62 56 55 55 48 41 41 42 40 56 51 58 57 55 50 45 43 41 39 37
46 56 43 46 55 56 61 61 84 56 52 68 66 65 63 42 50 52 63 76 77 74 73 71 68 63 62 59 58 54 49 45 43 41 43 51 48 45 54 58 53 48 46 43 39
35 54 39 36 50 59 62 60 72 69 41 43 72 59 72 56 34 58 49 66 78 76 74 73 70 66 65 61 61 61 50 46 43 41 37 44 40 49 50 49 49 51 49 47 45
Wind_Direction
265 264 258 259 256 251 242 240 240 243 248 251 248 245 244 240 237 235 230 230 227 230 229 229 228 231 232 233 232 232 224 224 220 226 221 215 210 205 201 193 191 191 170 94 58
265 268 265 264 263 253 245 234 244 251 247 251 254 250 245 243 240 238 234 233 230 230 232 231 232 232 235 234 233 231 225 227 222 224 217 214 211 208 201 201 200 199 203 155 36
277 269 264 264 263 259 256 247 240 244 244 246 251 253 252 247 242 241 238 236 234 233 233 233 234 235 234 236 234 230 227 230 228 225 220 217 214 208 207 207 208 209 217 221 346
276 273 270 266 260 259 262 258 245 243 244 250 248 250 249 250 244 241 240 239 237 235 234 235 235 236 236 237 236 232 229 232 232 229 224 219 220 214 212 210 213 213 220 234 269
270 273 271 269 268 261 258 259 256 247 243 245 249 246 243 245 247 243 240 241 240 238 235 235 237 236 237 236 235 232 233 230 230 234 227 222 221 219 221 211 215 218 228 240 261
267 266 270 271 268 264 261 258 255 258 248 240 243 245 241 245 243 243 241 238 241 240 238 236 235 237 238 238 237 235 235 237 228 231 231 227 224 220 228 215 222 228 238 252 268
269 268 267 264 267 268 266 260 256 253 256 253 242 239 239 244 244 243 240 239 238 240 240 238 236 236 237 239 237 236 237 235 237 230 230 232 230 222 227 217 225 232 247 257 269
263 266 267 267 265 264 265 264 259 255 256 255 251 240 239 245 245 244 241 239 238 237 238 240 238 238 237 238 238 237 236 238 236 237 231 232 225 232 229 226 231 236 247 258 268
253 259 263 264 265 264 262 263 263 260 255 255 252 248 242 243 245 244 245 243 240 238 237 237 240 239 239 238 238 237 238 240 240 240 238 235 223 235 231 232 233 240 245 254 265
252 249 253 259 262 264 264 262 260 260 258 255 255 257 247 247 241 243 244 243 243 239 238 236 237 240 241 241 241 243 241 240 240 240 241 237 230 234 238 234 237 239 242 249 260
249 251 251 252 257 261 262 262 260 260 258 261 258 256 255 249 247 245 242 244 239 243 239 237 235 239 241 240 240 239 238 237 239 239 240 240 236 236 239 239 237 238 240 247 256
246 247 250 251 251 254 257 259 261 260 259 253 254 256 254 252 250 246 246 244 243 237 243 241 237 236 236 238 240 241 239 238 238 240 238 239 238 236 242 239 242 241 240 244 255
247 246 246 247 251 252 253 256 256 258 258 254 253 250 252 253 250 248 246 245 242 238 236 242 239 237 237 235 238 240 240 239 240 241 242 241 239 236 241 245 241 244 247 250 256
247 248 248 247 245 249 252 255 254 254 255 253 253 254 252 253 253 249 248 245 244 241 235 235 239 239 237 235 234 236 239 238 238 239 241 241 240 236 238 243 243 242 246 250 253
245 244 246 248 247 246 248 251 250 250 250 247 246 249 249 249 252 248 246 247 246 246 240 239 236 245 244 241 240 237 236 237 238 239 239 240 244 232 237 242 248 248 249 251 255
243 243 242 243 244 246 246 247 246 242 244 246 243 244 247 248 248 245 244 243 241 242 240 236 238 240 244 241 239 238 236 236 237 238 239 239 242 241 235 240 244 250 252 253 254
244 242 242 240 240 241 243 244 243 240 243 244 242 241 243 246 247 245 243 245 245 244 242 241 240 240 240 238 237 239 239 238 237 238 241 240 240 246 242 241 245 250 254 255 256
244 244 242 240 240 238 242 244 243 242 242 244 243 242 244 245 246 246 242 242 244 242 242 244 244 244 243 239 239 241 242 242 244 245 246 248 244 243 248 245 245 249 253 257 258
245 244 244 241 242 242 244 242 242 242 240 240 242 242 243 244 245 244 244 245 245 247 248 252 249 244 241 237 238 237 239 242 243 244 245 246 246 245 246 250 247 249 253 257 258
242 241 242 240 244 245 245 243 245 246 241 239 240 242 244 243 242 243 242 242 240 240 243 245 244 242 240 240 236 237 233 237 240 243 244 244 244 246 246 252 253 251 249 251 254
230 233 235 237 239 229 224 242 241 243 243 240 238 242 240 241 243 244 244 245 242 239 240 242 246 247 246 242 242 239 240 234 233 239 242 244 244 244 247 249 250 250 248 246 246
229 243 228 216 214 221 222 225 234 236 233 242 239 240 241 240 240 241 241 240 240 239 239 240 241 243 248 251 250 246 243 238 233 235 241 245 242 243 245 246 242 241 243 244 244
227 230 219 210 211 219 226 217 228 227 227 229 237 237 235 233 236 236 238 238 237 237 235 235 235 239 242 247 251 249 245 241 239 234 233 239 239 240 244 245 245 243 245 245 245
228 230 200 205 216 215 218 207 219 225 225 221 228 228 233 229 231 235 236 234 233 234 231 234 235 240 246 254 255 258 255 256 251 242 244 241 244 242 240 248 252 250 245 241 245
224 221 210 226 214 219 223 224 209 219 221 222 226 219 218 224 223 223 233 232 229 230 230 231 233 234 235 237 243 245 244 250 249 247 245 244 243 242 242 244 246 244 241 240 247
223 223 210 231 225 209 214 212 218 214 212 215 223 220 214 212 233 233 235 233 230 226 228 230 230 230 233 235 240 242 239 242 257 255 249 243 236 239 241 241 240 239 240 244 257
222 216 210 223 218 219 225 221 206 212 219 222 225 218 211 199 195 212 222 226 226 227 228 228 228 228 230 233 238 237 242 246 253 258 264 253 236 242 243 245 244 242 246 253 254
Height
5737 5739 5740 5741 5743 5745 5747 5751 5754 5757 5761 5764 5767 5770 5775 5779 5784 5787 5790 5795 5798 5802 5804 5806 5809 5812 5815 5817 5819 5822 5825 5827 5827 5829 5831 5833 5834 5835 5836 5837 5838 5839 5839 5839 5838
5733 5734 5735 5736 5737 5740 5742 5745 5749 5750 5754 5758 5761 5764 5768 5773 5777 5781 5786 5788 5792 5796 5799 5802 5805 5808 5812 5813 5816 5818 5822 5822 5824 5825 5827 5830 5832 5834 5835 5835 5836 5837 5837 5837 5836
5726 5728 5729 5730 5732 5732 5735 5737 5740 5743 5746 5751 5756 5758 5761 5766 5771 5774 5778 5782 5786 5790 5793 5797 5800 5803 5807 5809 5812 5815 5818 5818 5820 5822 5824 5826 5829 5831 5832 5833 5834 5835 5835 5835 5834
5719 5721 5722 5722 5723 5726 5728 5730 5731 5735 5738 5742 5746 5752 5755 5758 5765 5767 5771 5775 5779 5783 5787 5791 5794 5797 5802 5804 5807 5810 5812 5813 5817 5819 5821 5824 5826 5828 5830 5831 5832 5833 5833 5833 5833
5712 5713 5714 5716 5717 5718 5721 5723 5725 5727 5730 5733 5738 5743 5747 5751 5755 5758 5762 5767 5771 5776 5780 5784 5788 5790 5794 5798 5801 5805 5807 5808 5812 5815 5817 5819 5822 5824 5826 5828 5829 5830 5831 5831 5832
5703 5705 5705 5707 5709 5711 5712 5715 5717 5719 5722 5724 5728 5733 5739 5743 5746 5749 5754 5758 5763 5767 5772 5776 5780 5783 5787 5792 5795 5800 5801 5804 5806 5809 5812 5815 5817 5821 5820 5824 5826 5827 5828 5829 5829
5691 5694 5696 5698 5699 5701 5703 5706 5708 5710 5713 5716 5719 5724 5729 5733 5737 5741 5744 5749 5753 5758 5763 5767 5771 5775 5781 5784 5788 5793 5796 5798 5802 5804 5807 5809 5814 5816 5816 5819 5821 5823 5824 5825 5826
5680 5682 5684 5687 5689 5692 5693 5696 5699 5700 5703 5705 5710 5714 5720 5724 5727 5732 5735 5739 5743 5748 5753 5758 5763 5767 5771 5776 5781 5785 5789 5792 5797 5799 5801 5803 5811 5808 5812 5814 5816 5818 5819 5821 5822
5669 5669 5671 5675 5677 5679 5682 5684 5686 5689 5692 5695 5699 5704 5709 5716 5718 5722 5727 5730 5734 5738 5743 5748 5754 5759 5764 5767 5772 5776 5781 5787 5790 5792 5794 5796 5804 5803 5806 5809 5811 5813 5814 5815 5817
5654 5658 5660 5661 5664 5666 5668 5671 5673 5676 5678 5684 5689 5695 5701 5706 5709 5711 5717 5722 5725 5729 5734 5738 5743 5750 5755 5758 5765 5772 5775 5779 5782 5785 5785 5789 5796 5797 5799 5802 5805 5807 5809 5810 5812
5637 5641 5645 5649 5650 5651 5655 5657 5661 5662 5666 5676 5681 5687 5689 5696 5701 5703 5707 5711 5716 5720 5725 5728 5733 5742 5747 5749 5754 5759 5763 5768 5772 5775 5777 5781 5788 5790 5792 5796 5798 5801 5804 5806 5807
5618 5623 5626 5629 5634 5637 5639 5641 5643 5646 5650 5659 5664 5671 5678 5683 5690 5694 5697 5701 5705 5713 5715 5720 5726 5731 5733 5739 5744 5750 5753 5758 5762 5764 5768 5772 5779 5782 5783 5789 5792 5794 5797 5798 5800
5597 5602 5607 5610 5613 5619 5623 5627 5626 5628 5630 5641 5649 5657 5664 5671 5678 5682 5685 5688 5693 5699 5706 5710 5717 5719 5724 5729 5733 5739 5744 5749 5753 5756 5759 5764 5769 5774 5776 5779 5784 5787 5789 5791 5793
5575 5580 5583 5586 5596 5600 5604 5608 5605 5609 5608 5622 5634 5641 5649 5659 5665 5671 5672 5677 5682 5688 5693 5697 5706 5709 5713 5719 5721 5727 5734 5737 5740 5744 5749 5753 5756 5765 5768 5770 5774 5778 5781 5783 5785
5548 5556 5560 5561 5571 5582 5587 5582 5582 5583 5579 5610 5620 5626 5634 5641 5650 5659 5663 5665 5671 5675 5680 5693 5696 5701 5706 5714 5714 5718 5722 5726 5729 5732 5737 5744 5744 5757 5759 5763 5767 5770 5773 5776 5778
5517 5525 5531 5537 5547 5557 5560 5558 5555 5555 5556 5581 5602 5612 5620 5627 5631 5641 5648 5653 5659 5662 5667 5674 5681 5687 5696 5701 5703 5706 5710 5713 5717 5720 5724 5733 5735 5742 5753 5757 5758 5761 5766 5768 5771
5480 5488 5495 5505 5524 5530 5532 5529 5520 5514 5553 5564 5585 5597 5602 5609 5615 5623 5633 5639 5649 5655 5660 5664 5667 5674 5683 5687 5691 5696 5700 5702 5704 5708 5715 5719 5726 5736 5745 5750 5752 5754 5756 5759 5762
5444 5452 5461 5476 5487 5499 5498 5491 5482 5504 5534 5555 5565 5575 5577 5588 5598 5608 5616 5626 5636 5642 5647 5652 5658 5665 5672 5676 5684 5687 5690 5695 5696 5701 5709 5709 5718 5729 5732 5740 5744 5745 5747 5750 5753
5412 5418 5427 5447 5456 5465 5465 5452 5460 5478 5516 5537 5542 5542 5557 5567 5580 5588 5598 5614 5625 5636 5641 5644 5648 5655 5656 5662 5668 5673 5676 5686 5686 5689 5693 5698 5709 5719 5723 5726 5733 5737 5739 5742 5744
5374 5382 5393 5422 5428 5433 5427 5429 5443 5462 5490 5507 5513 5524 5537 5547 5556 5568 5579 5599 5610 5619 5625 5630 5635 5641 5644 5647 5650 5657 5669 5671 5674 5678 5681 5688 5696 5707 5715 5717 5722 5726 5730 5732 5735
5346 5349 5372 5390 5400 5398 5396 5407 5429 5444 5463 5481 5497 5502 5513 5525 5538 5550 5567 5586 5602 5611 5613 5620 5624 5629 5631 5633 5640 5647 5648 5655 5663 5666 5671 5678 5686 5698 5704 5709 5714 5717 5720 5723 5726
5331 5331 5358 5368 5369 5376 5383 5395 5415 5426 5444 5457 5471 5481 5493 5509 5519 5530 5547 5573 5582 5593 5599 5607 5607 5612 5619 5624 5628 5632 5638 5643 5648 5659 5663 5669 5679 5690 5696 5700 5704 5707 5710 5714 5718
5312 5318 5338 5343 5343 5361 5373 5386 5398 5409 5422 5437 5448 5464 5480 5488 5497 5511 5533 5554 5563 5574 5584 5591 5587 5596 5603 5610 5617 5622 5631 5633 5638 5645 5648 5655 5669 5680 5682 5688 5693 5698 5702 5705 5709
5303 5307 5316 5322 5338 5349 5362 5374 5385 5397 5411 5424 5433 5450 5463 5473 5482 5496 5513 5534 5547 5558 5566 5571 5575 5585 5595 5605 5611 5614 5620 5621 5624 5629 5639 5643 5662 5665 5673 5676 5682 5687 5691 5695 5699
5294 5297 5309 5315 5323 5336 5348 5364 5374 5386 5395 5410 5417 5428 5446 5457 5468 5478 5499 5514 5530 5542 5547 5552 5562 5575 5584 5589 5594 5602 5607 5609 5612 5622 5621 5641 5645 5655 5659 5663 5668 5673 5678 5683 5687
5285 5293 5301 5308 5316 5327 5337 5346 5358 5376 5381 5393 5402 5420 5437 5450 5458 5472 5485 5497 5508 5523 5528 5537 5549 5561 5568 5576 5581 5585 5593 5599 5606 5613 5615 5623 5632 5640 5643 5648 5655 5661 5666 5671 5676
5272 5287 5293 5303 5310 5318 5325 5340 5356 5368 5372 5381 5395 5412 5422 5444 5448 5456 5466 5475 5490 5502 5513 5523 5534 5544 5553 5563 5566 5566 5583 5591 5599 5603 5611 5610 5629 5630 5636 5639 5644 5650 5657 5662 5664